User: anonymous   Login
Location: Unspecified
(0.0000°N, 0.0000°E)
Time: 11:49:10
(UTC+00:00)
Language:

USA 285 - Orbit

View from above orbital plane
View from above orbital plane
View from above satellite
View from above satellite

Ground track
Ground track

The orbit data is extracted from the following two-line orbital elements,

1 43445U 18036E   21020.11609875  .00000012  00000-0  00000-0 0  9993
2 43445   2.3025  88.3845 0007477  99.7360 307.5747  1.02113012  6784
Epoch (UTC): 20 January 2021 02:47:10
Eccentricity: 0.0007477
inclination: 2.3025°
perigee height: 35246 km
apogee height: 35309 km
right ascension of ascending node: 88.3845°
argument of perigee: 99.7360°
revolutions per day: 1.02113012
mean anomaly at epoch: 307.5747°
orbit number at epoch: 678

The dashed part of the orbit path shows where the satellite is in the earth's shadow,  

DLR